This demonstration page uses our WeatherBlox Daily Observations layout. Learn more.

Left ArrowRight Arrow

34.74481, -87.66753

Hourly Observations for June 15, 2019

Temp ( °F °C ) Dew Point ( °F °C ) Humidity (%) Winds ( mph kmh ) Pressure ( in mb ) Visibility ( mi km ) Precip ( " mm )
12:53 am 00:53 Clear 71 21.7 58 14.4 63 63 SE 6 9 30.05 1018 10 16 0.00 0.00
1:53 am 01:53 Clear 70 21.1 57 13.9 64 64 SE 5 7 30.04 1017 10 16 0.00 0.00
2:53 am 02:53 Clear 68 20 57 13.9 68 68 SSE 6 9 30.04 1017 10 16 0.00 0.00
3:53 am 03:53 Clear 68 20 56 13.3 65 65 SSE 6 9 30.05 1018 10 16 0.00 0.00
4:53 am 04:53 Mostly Cloudy 68 20 56 13.3 65 65 SSE 3 6 30.07 1018 10 16 0.00 0.00
5:53 am 05:53 Mostly Cloudy 70 21.1 56 13.3 61 61 S 7 11 30.08 1019 10 16 0.00 0.00
6:53 am 06:53 Sunny 72 22.2 56 13.3 57 57 S 9 15 30.08 1019 10 16 0.00 0.00
7:53 am 07:53 Mostly Cloudy 74 23.3 57 13.9 56 56 SSW 9 15 30.09 1019 10 16 0.00 0.00
8:53 am 08:53 Sunny 79 26.1 61 16.1 54 54 SSW 13 20 30.07 1018 10 16 0.00 0.00
9:53 am 09:53 Mostly Cloudy 82 27.8 63 17.2 53 53 SSW 16 26 30.07 1018 10 16 0.00 0.00
10:53 am 10:53 Cloudy 86 30 62 16.7 45 45 SW 14 22 30.07 1018 10 16 0.00 0.00
11:53 am 11:53 Mostly Sunny 87 30.6 60 15.6 40 40 SW 13 20 30.06 1018 10 16 0.00 0.00
12:53 pm 12:53 Partly Cloudy 88 31.1 61 16.1 40 40 SW 15 24 30.05 1018 10 16 0.00 0.00
1:53 pm 13:53 Sunny 90 32.2 60 15.6 37 37 SW 12 19 30.04 1017 10 16 0.00 0.00
2:53 pm 14:53 Sunny 90 32.2 61 16.1 38 38 SSW 12 19 30.01 1016 10 16 0.00 0.00
3:53 pm 15:53 Partly Cloudy 89 31.7 61 16.1 39 39 SW 17 28 30.00 1016 10 16 0.00 0.00
4:53 pm 16:53 Sunny 89 31.7 63 17.2 42 42 SSW 15 24 29.98 1015 10 16 0.00 0.00
5:53 pm 17:53 Sunny 89 31.7 62 16.7 41 41 SW 12 19 29.97 1015 10 16 0.00 0.00
6:53 pm 18:53 Sunny 86 30 63 17.2 46 46 SSW 10 17 29.96 1015 10 16 0.00 0.00
7:53 pm 19:53 Sunny 83 28.3 64 17.8 53 53 S 7 11 29.96 1015 10 16 0.00 0.00
8:53 pm 20:53 Clear 80 26.7 65 18.3 60 60 S 9 15 29.95 1014 10 16 0.00 0.00
9:53 pm 21:53 Clear 79 26.1 65 18.3 62 62 S 7 11 29.96 1014 10 16 0.00 0.00
10:53 pm 22:53 Clear 79 26.1 65 18.3 62 62 S 10 17 29.95 1014 10 16 0.00 0.00
11:53 pm 23:53 Clear 79 26.1 65 18.3 62 62 S 6 9 29.96 1015 10 16 0.00 0.00

Powered by AerisWeather